Weather History for Cut Bank, MT

Change the Weather History Date:

Saturday, January 4, 2014

  Actual Average Record
Temperature  
Mean Temperature 8 °F 22 °F  
Max Temperature 16 °F 32 °F 57 °F (1984)
Min Temperature 0 °F 11 °F -29 °F (1991)
Degree Days  
Heating Degree Days 57 43  
Month to date heating degree days 154 175  
Since 1 July heating degree days 3683 3765  
Cooling Degree Days 0 0  
Month to date cooling degree days 0 0  
Year to date cooling degree days 0 0  
Moisture  
Dew Point 1 °F    
Average Humidity 82    
Maximum Humidity 88    
Minimum Humidity 76    
Precipitation  
Precipitation T in 0.01 in 0.20 in (1909)
Month to date precipitation 0.01 0.03  
Year to date precipitation 0.01 0.03  
Snow  
Snow 0.00 in - - ()
Snow Depth T in    
Sea Level Pressure  
Sea Level Pressure 30.28 in    
Wind  
Wind Speed 10 mph (North)    
Max Wind Speed 24 mph    
Max Gust Speed 29 mph    
Visibility 3 miles    
Events Snow    
T = Trace of Precipitation, MM = Missing Value Source: NWS Daily Summary

Daily Weather History Graph

Daily Weather History Graph

Search for Another Location

Airport:

Trip Planner

Search our weather history database for the weather conditions in past years. The results will help you decide how hot, cold, wet, or windy it might be!

Date:

Astronomy

Jan. 04, 2014 Rise Set
Actual Time 8:21 AM MST 4:47 PM MST
Civil Twilight 7:45 AM MST 5:24 PM MST
Nautical Twilight 7:05 AM MST 6:04 PM MST
Astronomical Twilight 6:27 AM MST 6:42 PM MST
Moon 10:08 AM MST (1/4) 9:35 PM MST (1/4)
Length of Visible Light 9h 39m
Length of Day
8h 26m
Waxing Crescent, 16% of the Moon is Illuminated
Jan 4
Waxing Crescent
Jan 7
First Quarter
Jan 15
Full
Jan 23
Last Quarter
Jan 30
New

Hourly Weather History & Observations

Time (MST) Temp. Windchill Dew Point Humidity Pressure Visibility Wind Dir Wind Speed Gust Speed Precip Events Conditions
12:56 AM 16.0 °F 8.8 °F 12.9 °F 88% 30.11 in 10.0 mi North 4.6 mph - N/A   Overcast
1:56 AM 16.0 °F 6.3 °F 12.9 °F 88% 30.11 in 10.0 mi NE 6.9 mph - N/A   Overcast
2:41 AM 15.1 °F 1.8 °F 12.0 °F 88% 29.98 in 1.8 mi NNE 11.5 mph - 0.00 in Snow Light Snow
2:56 AM 15.1 °F 0.5 °F 12.0 °F 88% 30.14 in 1.5 mi NNE 13.8 mph - 0.00 in Snow Light Snow
3:28 AM 15.1 °F -1.1 °F 10.9 °F 84% 30.00 in 2.0 mi NE 17.3 mph - 0.00 in Snow Light Snow
3:36 AM 14.0 °F -1.4 °F 10.9 °F 88% 30.00 in 1.2 mi NNE 15.0 mph - 0.00 in Snow Light Snow
3:44 AM 14.0 °F -2.0 °F 10.9 °F 88% 30.01 in 1.0 mi NNE 16.1 mph - 0.00 in Snow Light Snow
3:56 AM 12.9 °F -2.8 °F 9.0 °F 84% 30.18 in 1.2 mi NNE 15.0 mph - 0.00 in Snow Light Snow
4:31 AM 10.9 °F -6.5 °F 7.0 °F 84% 30.05 in 1.0 mi NNE 17.3 mph - 0.00 in Snow Light Snow
4:56 AM 9.0 °F -9.5 °F 3.9 °F 80% 30.25 in 2.0 mi NNE 18.4 mph 27.6 mph 0.00 in Snow Light Snow
4:59 AM 8.1 °F -12.6 °F 3.9 °F 83% 30.08 in 1.8 mi NNE 23.0 mph - 0.00 in Snow Light Snow
5:19 AM 7.0 °F -9.8 °F 3.0 °F 84% 30.09 in 2.0 mi North 13.8 mph - 0.00 in Snow Light Snow
5:36 AM 7.0 °F -9.8 °F 3.0 °F 84% 30.11 in 3.0 mi North 13.8 mph - 0.00 in Snow Light Snow
5:56 AM 7.0 °F -8.3 °F 3.0 °F 84% 30.29 in 2.5 mi NNW 11.5 mph - 0.00 in Snow Light Snow
6:10 AM 6.1 °F -10.2 °F 1.9 °F 83% 30.12 in 4.0 mi North 12.7 mph - 0.00 in Snow Light Snow
6:25 AM 6.1 °F -9.5 °F 1.9 °F 83% 30.13 in 2.5 mi North 11.5 mph - 0.00 in Snow Light Snow
6:38 AM 6.1 °F -9.5 °F 1.9 °F 83% 30.13 in 1.8 mi North 11.5 mph - 0.00 in Snow Light Snow
6:56 AM 6.1 °F -7.8 °F 1.9 °F 83% 30.32 in 1.8 mi North 9.2 mph - 0.00 in Snow Light Snow
7:54 AM 5.0 °F -10.0 °F 1.4 °F 85% 30.14 in 2.0 mi NNW 10.4 mph - 0.00 in Snow Light Snow
7:56 AM 5.0 °F -10.0 °F 1.0 °F 84% 30.34 in 2.0 mi NNW 10.4 mph - 0.00 in Snow Light Snow
8:08 AM 5.0 °F -10.0 °F 1.9 °F 87% 30.15 in 1.5 mi NNW 10.4 mph - 0.00 in Snow Light Snow
8:52 AM 5.0 °F -11.6 °F 1.4 °F 85% 30.17 in 2.0 mi North 12.7 mph - 0.00 in Snow Light Snow
8:56 AM 5.0 °F -11.6 °F 1.0 °F 84% 30.37 in 2.5 mi North 12.7 mph - 0.00 in Snow Light Snow
9:44 AM 5.0 °F -10.0 °F 1.0 °F 84% 30.19 in 3.0 mi North 10.4 mph - 0.00 in Snow Light Snow
9:56 AM 6.1 °F -8.7 °F -0.0 °F 76% 30.40 in 3.0 mi North 10.4 mph - 0.00 in Snow Light Snow
10:56 AM 6.1 °F -5.6 °F -0.0 °F 76% 30.42 in 2.5 mi North 6.9 mph - 0.00 in Snow Light Snow
11:17 AM 6.1 °F -2.8 °F -0.0 °F 76% 30.21 in 4.0 mi North 4.6 mph - 0.00 in Snow Light Snow
11:56 AM 6.1 °F -6.8 °F -0.9 °F 73% 30.42 in 3.0 mi North 8.1 mph - 0.00 in Snow Light Snow
12:56 PM 6.1 °F -9.5 °F -0.9 °F 73% 30.41 in 5.0 mi North 11.5 mph - 0.00 in Snow Light Snow
1:14 PM 5.0 °F -9.1 °F -0.9 °F 76% 30.21 in 2.5 mi North 9.2 mph - 0.00 in Snow Light Snow
1:31 PM 6.1 °F -8.7 °F -0.9 °F 73% 30.20 in 3.0 mi NNE 10.4 mph - 0.00 in Snow Light Snow
1:39 PM 5.0 °F -10.0 °F -0.9 °F 76% 30.20 in 1.8 mi North 10.4 mph - 0.00 in Snow Light Snow
1:56 PM 5.0 °F -10.0 °F -0.9 °F 76% 30.41 in 1.5 mi North 10.4 mph - 0.00 in Snow Light Snow
2:08 PM 5.0 °F -10.0 °F -0.9 °F 76% 30.21 in 2.0 mi North 10.4 mph - 0.00 in Snow Light Snow
2:22 PM 5.0 °F -10.8 °F -0.9 °F 76% 30.21 in 3.0 mi North 11.5 mph - 0.00 in Snow Light Snow
2:56 PM 3.9 °F -12.2 °F -2.9 °F 73% 30.43 in 10.0 mi North 11.5 mph - 0.00 in   Overcast
3:56 PM 3.0 °F -13.3 °F -2.9 °F 76% 30.47 in 4.0 mi NNE 11.5 mph - 0.00 in Snow Light Snow
4:12 PM 3.0 °F -13.3 °F -2.9 °F 76% 30.26 in 2.5 mi NNE 11.5 mph - 0.00 in Snow Light Snow
4:56 PM 1.9 °F -11.8 °F -2.9 °F 80% 30.51 in 3.0 mi NNE 8.1 mph - 0.00 in Snow Light Snow
5:13 PM 1.0 °F -15.8 °F -4.0 °F 79% 30.27 in 2.5 mi NNE 11.5 mph - 0.00 in Snow Light Snow
5:22 PM 1.0 °F -14.0 °F -2.9 °F 83% 30.28 in 2.5 mi North 9.2 mph - 0.00 in Snow Light Snow
5:26 PM 1.0 °F -14.9 °F -4.0 °F 79% 30.27 in 3.0 mi North 10.4 mph - 0.00 in Snow Light Snow
5:56 PM 1.0 °F -11.7 °F -4.0 °F 79% 30.52 in 2.5 mi North 6.9 mph - 0.00 in Snow Light Snow
6:09 PM 1.0 °F -12.9 °F -4.0 °F 79% 30.28 in 3.0 mi North 8.1 mph - 0.00 in Snow Light Snow
6:28 PM -0.0 °F -14.2 °F -5.1 °F 79% 30.29 in 2.5 mi North 8.1 mph - 0.00 in Snow Light Snow
6:44 PM -0.0 °F -13.0 °F -4.0 °F 83% 30.29 in 3.0 mi NNW 6.9 mph - 0.00 in Snow Light Snow
6:56 PM -0.0 °F -15.3 °F -5.1 °F 79% 30.55 in 4.0 mi NNW 9.2 mph - 0.00 in Snow Light Snow
7:12 PM -0.0 °F -16.3 °F -5.1 °F 79% 30.30 in 2.0 mi NNW 10.4 mph - 0.00 in Snow Light Snow
7:56 PM -0.0 °F -14.2 °F -5.1 °F 79% 30.56 in 2.5 mi NNW 8.1 mph - 0.00 in Snow Light Snow
8:15 PM -0.0 °F -16.3 °F -5.1 °F 79% 30.32 in 3.0 mi WNW 10.4 mph - 0.00 in Snow Light Snow
8:56 PM -0.0 °F -15.3 °F -4.0 °F 83% 30.57 in 3.0 mi WNW 9.2 mph - 0.00 in Snow Light Snow
9:56 PM 1.0 °F -14.0 °F -2.9 °F 83% 30.59 in 3.0 mi NW 9.2 mph - 0.00 in Snow Light Snow
10:48 PM 1.0 °F -12.9 °F -4.0 °F 79% 30.36 in 2.5 mi WNW 8.1 mph - 0.00 in Snow Light Snow
10:56 PM 1.0 °F -12.9 °F -4.0 °F 79% 30.61 in 5.0 mi NW 8.1 mph - 0.00 in   Haze
11:56 PM -0.0 °F -13.0 °F -5.1 °F 79% 30.64 in 9.0 mi WNW 6.9 mph - 0.00 in   Overcast